Regional Weather Roundup
Issued by NWS Wilmington, NC

Home | Current Version | Previous Version | Text Only | Print | Product List | Glossary On
Versions: 1 2 3 4 5 6 7 8 9 10 11 12 13 14 15 16 17 18 19 20 21 22 23 24 25 26 27 28 29 30 31 32 33 34 35 36 37 38 39 40 41 42 43 44 45 46 47 48 49 50
500
ASUS42 KILM 260813
RWRILM
RWRILM
REGIONAL HOURLY WEATHER ROUNDUP
NATIONAL WEATHER SERVICE WILMINGTON NC
400 AM EDT TUE JUL 26 2016

NOTE: "FAIR" INDICATES FEW OR NO CLOUDS BELOW 12,000 FEET WITH NO
SIGNIFICANT WEATHER AND/OR OBSTRUCTIONS TO VISIBILITY.

...............WFO WILMINGTON COUNTY WARNING AREA...............

......COASTAL NC AND SC COUNTIES......

CITY           SKY/WX    TMP DP  RH WIND       PRES   REMARKS
WILMINGTON     CLEAR     78  73  84 SW8       30.02S
N MYRTLE BEACH CLEAR     80  73  79 SW8       30.02F
MYRTLE BEACH   CLEAR     79  68  69 SW3       30.04F

......INLAND NC AND SC COUNTIES.......

CITY           SKY/WX    TMP DP  RH WIND       PRES   REMARKS
LUMBERTON      PTCLDY    76  73  91 SW5       30.00F
ELIZABETHTOWN  PTCLDY    77  73  88 SW5       30.01S
WHITEVILLE     CLEAR     76  73  89 SW3       30.02S
FLORENCE       CLEAR     78  73  84 SW8       30.02S
DARLINGTON     CLEAR     76  73  91 SW7       30.02S
KINGSTREE      FAIR      73  70  88 CALM      30.02F
HARTSVILLE     FAIR      73  70  88 SW5       30.02S
BENNETTSVILLE  FAIR      79  73  83 SW5       30.01S
CONWAY         FAIR      73  72  94 SW3       30.03S
GEORGETOWN     FAIR      72  72 100 CALM      30.04S
MARION           N/A     73  72  94 S5        30.02S

....................REST OF NORTH CAROLINA......................

.........EASTERN NC.........

CITY           SKY/WX    TMP DP  RH WIND       PRES   REMARKS
CAPE HATTERAS  PTCLDY    81  76  84 W7        30.01R
JACKSONVILLE   CLOUDY    76  74  93 SW7       30.02S
MOREHEAD CITY  MOCLDY    82  75  79 W10       30.02R
KENANSVILLE    NOT AVBL
NEW BERN       MOCLDY    78  73  84 SW7       30.02S
ELIZABETH CITY CLEAR     79  73  82 SW10      29.96F

.........CENTRAL NC.........

CITY           SKY/WX    TMP DP  RH WIND       PRES   REMARKS
RALEIGH DURHAM PTCLDY    79  72  79 SW8       29.99S
ROCKY MOUNT    CLEAR     78  73  84 S7        29.98S
ROANOKE RAPIDS NOT AVBL
FAYETTEVILLE   CLOUDY    79  72  79 SW8       30.00S
HOFFMAN        CLEAR     77  72  83 SW5       30.01S

.........WESTERN NC.........

CITY           SKY/WX    TMP DP  RH WIND       PRES   REMARKS
CHARLOTTE      MOCLDY    79  68  69 SW6       30.02S
GREENSBORO     PTCLDY    80  70  71 SW8       30.00R
HICKORY        NOT AVBL
BOONE          NOT AVBL
ASHEVILLE      NOT AVBL

.....................REST OF SOUTH CAROLINA.....................

.........EASTERN SC.........

CITY           SKY/WX    TMP DP  RH WIND       PRES   REMARKS
CHARLESTON     CLEAR     76  72  87 SW3       30.03F
BEAUFORT MCAS  CLEAR     78  73  84 SW3       30.03F
HILTON HEAD    CLEAR     81  77  89 SW7       30.04F

.........CENTRAL SC.........

CITY           SKY/WX    TMP DP  RH WIND       PRES   REMARKS
COLUMBIA       CLEAR     79  71  76 SW6       30.02S
ORANGEBURG     CLEAR     74  71  91 S5        30.04F
SUMTER SHAW    CLEAR     77  72  84 SW8       30.00F

.........WESTERN SC.........

CITY           SKY/WX    TMP DP  RH WIND       PRES   REMARKS
GREENVILLE     NOT AVBL
ROCK HILL      CLEAR     78  69  73 SW10      30.02F
ANDERSON       CLEAR     77  72  84 CALM      30.03S
CLEMSON        NOT AVBL
GREENWOOD      CLEAR     78  69  73 S9        30.03F


...................COASTAL AND OFFSHORE REPORTS..................

................LOCAL PIERS AND NC RESERVE................


STATION/POSITION TIME  SKY/WX   TEMP    WIND        PRES    VSBY
                                AIR SEA DIR/SP/G
                 (UTC)          (F)     (DEG/KT/KT) (MB)    (MI)
JOHNY MRCER PIER 0700            80 80  230/  8/ 11 1015.6F
NC RESRV MASNBRO NOT AVBL
OCEAN CREST PIER NOT AVBL
SPRINGMAID  PIER 0700            80 85              1016.5F


................COASTAL AND OFFSHORE BUOYS................


STATION/POSITION TIME  SKY/WX   TEMP    WIND        PRES    VSBY
                                AIR SEA DIR/SP/G
                 (UTC)          (F)     (DEG/KT/KT) (MB)    (MI)
DIMNDSHOAL 41025 0750            84 85  250/ 17/ 23 1016.1R
WVE H/P(F/S)=  5/ 5

CAPE LOOKOUT     0800            83     250/ 14/ 17 1016.2R
ONSLOW BAY 41036 NOT AVBL
ONSLOW BAY 41064 0708            84 85  240/ 17/ 23 1016.2F
ONSLOW BAY 41159 0725               85                N/A
WVE H/P(F/S)=  4/ 5

5SE WRITBC 41038 0708            81 81  250/ 10/ 14 1017.5F
MASNBO INL 41110 0706               81                N/A
WVE H/P(F/S)=  2/ 4

WILM HARBR 41108 0726               85                N/A
WVE H/P(F/S)=  4/ 5

27SE WRITB 41037 0708            84 84  240/ 16/ 21 1016.7F
FRYING PAN 41013 0700            84 86  240/ 16/ 17 1016.8F
SUNST NRSH 41024 0708            83 83  240/ 16/ 21 1016.5F
CAPRS NRSH 41029 0708            83 83  230/ 14/ 17 1017.1F
EDISTO     41004 0750            84 86  220/ 14/ 17 1016.5F
WVE H/P(F/S)=  2/ 4 SWL H/P/D(F/S/D)=  2/130/ 9



..........OFFSHORE BUOYS BEYOND 100 NM OFFSHORE...........
.....IN A TRIANGLE---HAT TO BERMUDA TO BAHAMAS TO HAT.....


STATION/POSITION TIME  SKY/WX   TEMP    WIND        PRES    VSBY
                                AIR SEA DIR/SP/G
                 (UTC)          (F)     (DEG/KT/KT) (MB)    (MI)
150E HAT   41001 NOT AVBL
W BERMUDA  41048 0750            83 85  250/ 10/ 12 1018.4F
WVE H/P(F/S)=  2/ 9 SWL H/P/D(F/S/D)=  2/140/ 9

ATLANTIC S 41049 0750            82 85  300/  2/  4 1019.4F
WVE H/P(F/S)=  3/ 7 SWL H/P/D(F/S/D)=  3/ 80/ 7

E BAHAMAS  41046 0800            83 85   80/ 14/ 16 1017.4S
NE BAHAMAS 41047 0800            83 86  140/  4/  6 1019.0S
120E CANVRL41010 0720            85 86  180/ 10/ 12 1018.4F

END




USA.gov is the U.S. government's official web portal to all federal, state and local government web resources and services.